White Mountain, AK

10:18 AM AKDT on October 20, 2017 (GMT -0800)
White Mountain

Weather History for PAWM - January, 2012

Change the Weather History Date:

Sunday, January 1, 2012

  Actual Average (PAOM) Record (PAOM)
Temperature  
Mean Temperature -26 °F -  
Max Temperature -24 °F 15 °F 36 °F (1968)
Min Temperature -29 °F 1 °F -38 °F (1949)
Degree Days  
Heating Degree Days 92    
Moisture  
Dew Point -32 °F    
Average Humidity 75    
Maximum Humidity 77    
Minimum Humidity 69    
Precipitation  
Precipitation 0.00 in - - ()
Sea Level Pressure  
Sea Level Pressure 29.82 in    
Wind  
Wind Speed 9 mph ()    
Max Wind Speed 16 mph    
Max Gust Speed -    
Visibility 9.8 miles    
Events Snow    
Averages and records for this station are not official NWS values.
T = Trace of Precipitation, MM = Missing Value Source: Averaged Metar Reports

Daily Weather History Graph

Daily Weather History Graph

Search for Another Location

Airport or City:

Trip Planner

Search our weather history database for the weather conditions in past years. The results will help you decide how hot, cold, wet, or windy it might be!

Date:

Astronomy

Jan. 01, 2012 Rise Set
Actual Time 11:54 AM AKST 4:00 PM AKST
Civil Twilight 10:33 AM AKST 5:20 PM AKST
Nautical Twilight 9:23 AM AKST 6:30 PM AKST
Astronomical Twilight 8:22 AM AKST 7:31 PM AKST
Moon 12:32 PM AKST (1/1) 3:14 AM AKST (1/1)
Length of Visible Light 6h 46m
Length of Day
4h 05m
First Quarter, 56% of the Moon is Illuminated
Jan 1
First Quarter
Jan 8
Full
Jan 16
Last Quarter
Jan 22
New
Jan 30
First Quarter

Hourly Weather History & Observations

Time (AKST) Temp. Windchill Dew Point Humidity Pressure Visibility Wind Dir Wind Speed Gust Speed Precip Events Conditions
12:15 AM -25.6 °F -43.8 °F -31.0 °F 76% 30.00 in 10.0 mi North 6.9 mph - N/A   Scattered Clouds
12:58 AM -26.0 °F -45.8 °F -32.1 °F 73% 30.04 in 10.0 mi North 8.1 mph - N/A   Clear
1:58 AM -26.0 °F -49.6 °F -32.1 °F 73% 30.03 in 10.0 mi North 11.5 mph - N/A   Clear
3:33 AM -27.4 °F -49.0 °F -34.6 °F 69% 29.96 in 10.0 mi North 9.2 mph - N/A   Overcast
3:58 AM -27.9 °F -49.6 °F -33.0 °F 77% 30.00 in 7.0 mi North 9.2 mph - 0.00 in Snow Light Snow
4:58 AM -26.0 °F -50.7 °F -31.0 °F 77% 29.98 in 10.0 mi North 12.7 mph - 0.00 in   Clear
5:58 AM -27.0 °F -51.0 °F -33.0 °F 73% 29.95 in 10.0 mi North 11.5 mph - N/A   Clear
7:58 AM -27.9 °F -49.6 °F -34.1 °F 73% 29.92 in 10.0 mi North 9.2 mph - N/A   Clear
8:58 AM -29.0 °F -52.3 °F -34.1 °F 77% 29.90 in 10.0 mi North 10.4 mph - 0.00 in   Clear
9:58 AM -29.0 °F -53.5 °F -35.0 °F 73% 29.89 in 9.0 mi North 11.5 mph - 0.00 in Snow Light Snow
10:58 AM -29.0 °F -51.0 °F -35.0 °F 73% 29.86 in 9.0 mi North 9.2 mph - 0.00 in Snow Light Snow
11:58 AM -29.0 °F -54.6 °F -35.0 °F 73% 29.84 in 10.0 mi North 12.7 mph - 0.00 in   Clear
12:58 PM -27.0 °F -48.5 °F -32.1 °F 77% 29.81 in 10.0 mi North 9.2 mph - N/A   Clear
1:58 PM -26.0 °F -48.5 °F -32.1 °F 73% 29.78 in 10.0 mi North 10.4 mph - N/A   Clear
2:58 PM -26.0 °F -51.7 °F -32.1 °F 73% 29.75 in 10.0 mi North 13.8 mph - N/A   Clear
3:58 PM -27.0 °F -47.1 °F -33.0 °F 73% 29.73 in 10.0 mi North 8.1 mph - N/A   Clear
4:58 PM -27.9 °F -48.2 °F -33.0 °F 77% 29.71 in 10.0 mi North 8.1 mph - N/A   Clear
5:58 PM -27.9 °F -52.1 °F -33.0 °F 77% 29.69 in 10.0 mi North 11.5 mph - N/A   Clear
6:58 PM -26.0 °F -48.5 °F -31.0 °F 77% 29.68 in 10.0 mi North 10.4 mph - N/A   Clear
7:58 PM -26.0 °F -45.8 °F -32.1 °F 73% 29.66 in 10.0 mi North 8.1 mph - N/A   Clear
8:58 PM -26.0 °F -52.6 °F -32.1 °F 73% 29.65 in 10.0 mi North 15.0 mph - N/A   Clear
9:58 PM -26.0 °F -50.7 °F -31.0 °F 77% 29.64 in 10.0 mi North 12.7 mph - N/A   Clear
10:58 PM -24.0 °F -50.9 °F -29.0 °F 77% 29.62 in 10.0 mi North 16.1 mph - N/A   Clear
11:58 PM -24.0 °F -49.2 °F -29.0 °F 77% 29.63 in 10.0 mi North 13.8 mph - N/A   Clear